Location: Hartford
(41.7640°N, 72.6860°W)
Time: 22:57:10
(UTC-05:00)

Amateur Radio Satellites - All Passes

Search period start: 30 January 2015 22:27
Search period end: 31 January 2015 22:27
Location: Hartford, 41.7640°N, 72.6860°W

Satellite Date Start Highest point End Downlink Frequencies (MHz)
Time Altitude Azimuth
QB50P2 30 Jan 22:31:29 22:35:37 44° 99° (E) 22:39:44 145.880/145.840
QB50P1 30 Jan 22:40:09 22:44:23 54° 100° (E) 22:48:36 145.935-145.965
VELOX 1 30 Jan 22:42:11 22:45:44 23° 267° (W) 22:49:12 145.980
BUGSAT 1 30 Jan 22:43:12 22:47:20 45° 99° (E) 22:51:27 437.445
CUBEBUG 1 30 Jan 22:44:30 22:48:43 49° 261° (W) 22:53:00 437.445
ISS 30 Jan 22:53:03 22:55:41 22° 342° (NNW) 22:58:19 145.825
TISAT 1 30 Jan 22:54:37 22:58:42 49° 73° (ENE) 23:02:51 437.305
POLYITAN 1 30 Jan 22:56:02 23:00:23 84° 105° (ESE) 23:04:41 437.675
HUMSAT D 30 Jan 23:06:42 23:07:36 10° 273° (W) 23:08:12 437.325/437.525
AIST 1 30 Jan 23:14:42 23:17:28 16° 273° (W) 23:20:03
POPSAT HIP 1 30 Jan 23:15:13 23:19:29 61° 286° (WNW) 23:23:42 437.405
DUCHIFAT 1 30 Jan 23:16:51 23:21:07 59° 286° (WNW) 23:25:19 145.980
UNISAT 6 30 Jan 23:19:25 23:23:27 34° 290° (WNW) 23:27:21 437.425
GONETS M04 30 Jan 23:25:07 23:30:48 21° 80° (E) 23:36:55
NANOSAT C BR1 30 Jan 23:52:26 23:56:00 25° 292° (WNW) 23:59:28 145.865
ANTELSAT 30 Jan 23:56:41 23:59:21 15° 296° (WNW) 00:01:49 437.575/2403.000
SPROUT 30 Jan 23:59:34 00:03:26 31° 264° (W) 00:07:18 437.525
Oscar 19 30 Jan 23:59:42 00:00:46 11° 86° (E) 00:02:11 437.125/150
TIGRISAT 31 Jan 00:03:45 00:06:00 14° 297° (WNW) 00:08:03 435.000
SWISSCUBE 31 Jan 00:05:58 00:10:31 49° 72° (ENE) 00:15:09 437.505
QB50P2 31 Jan 00:08:19 00:11:14 18° 294° (WNW) 00:14:01 145.880/145.840
O/OREOS (USA 219) 31 Jan 00:12:26 00:15:24 17° 52° (NE) 00:18:31 437.305
KKS-1 31 Jan 00:17:00 00:18:37 12° 62° (ENE) 00:20:27 437.445
QB50P1 31 Jan 00:17:26 00:19:53 15° 295° (WNW) 00:22:11 145.935-145.965
BUGSAT 1 31 Jan 00:19:39 00:22:32 17° 294° (WNW) 00:25:15 437.445
BEESAT 31 Jan 00:21:16 00:25:58 65° 73° (ENE) 00:30:42 436.000
ITUPSAT 1 31 Jan 00:26:14 00:30:58 72° 74° (ENE) 00:35:44 437.325
ISS 31 Jan 00:31:05 00:33:03 15° 2° (N) 00:35:02 145.825
TISAT 1 31 Jan 00:32:26 00:34:53 14° 270° (W) 00:37:09 437.305
GONETS M04 31 Jan 01:17:57 01:26:44 82° 279° (W) 01:35:31
Gurwin Techsat 1B 31 Jan 01:24:55 01:28:30 19° 90° (E) 01:32:16 435.225
BEESAT 2 31 Jan 01:32:36 01:36:39 61° 120° (ESE) 01:40:47 435.950
Oscar 19 31 Jan 01:35:45 01:40:56 86° 285° (WNW) 01:46:04 437.125/150
AIST 2 31 Jan 01:38:19 01:41:58 29° 115° (ESE) 01:45:43 435.215
STARS 31 Jan 01:39:55 01:44:16 56° 73° (ENE) 01:48:40 437.465
M-CUBED/EXP-1 PRIME 31 Jan 01:41:17 01:44:56 37° 68° (ENE) 01:48:22 437.505
BEESAT 3 31 Jan 01:44:48 01:48:54 87° 302° (WNW) 01:53:05 437.485
SWISSCUBE 31 Jan 01:45:29 01:48:45 18° 269° (W) 01:51:51 437.505
KKS-1 31 Jan 01:50:15 01:54:44 75° 257° (WSW) 01:59:15 437.445
O/OREOS (USA 219) 31 Jan 01:50:44 01:55:15 56° 252° (WSW) 01:59:45 437.305
ITAMSAT 1 31 Jan 01:55:50 02:00:57 51° 100° (E) 02:06:02 435.822/435.867
CUSAT 1 31 Jan 01:57:33 02:01:45 16° 81° (E) 02:06:29 437.405
BEESAT 31 Jan 02:01:58 02:04:23 13° 272° (W) 02:06:31 436.000
ISS 31 Jan 02:07:28 02:10:21 27° 22° (NNE) 02:13:14 145.825
ITUPSAT 1 31 Jan 02:07:33 02:09:30 12° 272° (W) 02:11:10 437.325
AUBIESAT-1 31 Jan 02:12:38 02:16:36 82° 72° (ENE) 02:20:15 437.475
PCSat 31 Jan 02:26:31 02:29:41 16° 106° (ESE) 02:33:04 145.827
AO-7 31 Jan 02:26:48 02:31:00 15° 86° (E) 02:35:45 29.400- 29.500
Gurwin Techsat 1B 31 Jan 03:03:42 03:08:54 56° 288° (WNW) 03:14:05 435.225
RS-15 31 Jan 03:07:55 03:16:52 32° 107° (ESE) 03:26:10 29.354- 29.394
BEESAT 2 31 Jan 03:12:28 03:15:17 17° 319° (NW) 03:18:04 435.950
AIST 2 31 Jan 03:16:43 03:20:33 30° 312° (NW) 03:24:23 435.215
DANDE 31 Jan 03:16:47 03:24:39 50° 92° (E) 03:32:53 436.750
M-CUBED/EXP-1 PRIME 31 Jan 03:17:32 03:20:03 16° 261° (W) 03:22:21 437.505
Oscar 19 31 Jan 03:17:41 03:19:36 12° 301° (WNW) 03:21:14 437.125/150
STARS 31 Jan 03:18:47 03:21:11 14° 271° (W) 03:23:24 437.465
GONETS M04 31 Jan 03:19:39 03:25:17 17° 302° (WNW) 03:30:25
BEESAT 3 31 Jan 03:25:48 03:27:44 13° 323° (NW) 03:29:35 437.485
HORYU 2 31 Jan 03:31:55 03:36:23 80° 285° (WNW) 03:40:48 437.375
CUSAT 1 31 Jan 03:35:29 03:43:44 74° 97° (E) 03:52:03 437.405
ITAMSAT 1 31 Jan 03:36:11 03:40:08 21° 296° (WNW) 03:43:56 435.822/435.867
JAS-2 31 Jan 03:41:58 03:46:44 26° 94° (E) 03:52:06 435.910
MOZHAYETS 4 31 Jan 03:42:37 03:47:11 67° 74° (ENE) 03:51:45
ISS 31 Jan 03:43:46 03:46:58 49° 221° (SW) 03:50:10 145.825
PCSat 31 Jan 04:07:11 04:12:34 70° 301° (WNW) 04:18:01 145.827
AO-7 31 Jan 04:16:53 04:25:17 81° 107° (ESE) 04:33:36 29.400- 29.500
PRISM 31 Jan 04:54:32 04:58:22 40° 72° (ENE) 05:02:14 437.425
STRAND 1 31 Jan 04:57:28 05:01:36 26° 66° (ENE) 05:05:51 437.568
DANDE 31 Jan 05:00:23 05:08:19 42° 290° (WNW) 05:16:18 436.750
RS-15 31 Jan 05:17:33 05:28:27 71° 308° (NW) 05:39:30 29.354- 29.394
CUSAT 1 31 Jan 05:20:27 05:27:32 28° 295° (WNW) 05:34:17 437.405
MOZHAYETS 4 31 Jan 05:23:06 05:24:59 12° 273° (W) 05:26:35
YUBILEINY 31 Jan 05:25:10 05:33:13 39° 71° (ENE) 05:41:23 435.215
JAS-2 31 Jan 05:26:34 05:32:02 47° 289° (WNW) 05:38:07 435.910
CUBESAT XI-V 31 Jan 05:40:35 05:45:11 87° 81° (E) 05:49:50 437.345
Cubesat XI-IV 31 Jan 05:53:32 05:58:45 50° 99° (E) 06:03:59 437.490
PCSat 31 Jan 05:54:13 05:57:06 14° 323° (NW) 05:59:47 145.827
AO-7 31 Jan 06:10:49 06:17:19 25° 305° (NW) 06:23:33 29.400- 29.500
CUTE-I 31 Jan 06:12:50 06:18:13 74° 102° (ESE) 06:23:36 437.470
PRISM 31 Jan 06:31:25 06:34:08 16° 268° (W) 06:36:42 437.425
STRAND 1 31 Jan 06:35:53 06:40:39 39° 263° (W) 06:45:25 437.568
VERMONT LUNAR 31 Jan 06:36:39 06:38:27 14° 149° (SSE) 06:40:20 437.305
GOMX 1 31 Jan 07:21:02 07:22:29 11° 84° (E) 07:24:15 467.674
YUBILEINY 31 Jan 07:21:57 07:30:14 47° 271° (W) 07:38:27 435.215
BRITE-PL 31 Jan 07:34:00 07:38:25 24° 90° (E) 07:42:49 437.365/2234.400
RS-15 31 Jan 07:34:17 07:43:19 27° 337° (NNW) 07:52:21 29.354- 29.394
Cubesat XI-IV 31 Jan 07:34:23 07:38:33 23° 296° (WNW) 07:42:36 437.490
PHONESAT 2.4 31 Jan 07:46:39 07:49:34 23° 154° (SSE) 07:52:32 2401.200-2431.200
HO-68 31 Jan 07:49:10 07:55:05 28° 93° (E) 08:01:10 435.675
CUTE-I 31 Jan 07:54:28 07:57:46 16° 299° (WNW) 08:00:50 437.470
CANX-2 31 Jan 07:57:28 08:00:50 23° 93° (E) 08:04:16 2200.000
AAUSAT CUBESAT 2 31 Jan 08:02:23 08:04:38 15° 90° (E) 08:07:03 437.432
VERMONT LUNAR 31 Jan 08:12:45 08:16:05 45° 164° (SSE) 08:19:26 437.305
CUTE 1.7 + AOD 2 31 Jan 08:20:53 08:24:51 38° 97° (E) 08:28:48 437.475
CINEMA 3 31 Jan 08:30:19 08:33:49 21° 90° (E) 08:37:21 145.822/145.860
Oscar 11 31 Jan 08:30:55 08:33:22 15° 90° (E) 08:36:00 145.826/435.025
POPSAT HIP 1 31 Jan 08:36:17 08:37:05 11° 62° (ENE) 08:38:07 437.405
DUCHIFAT 1 31 Jan 08:37:31 08:38:26 11° 62° (ENE) 08:39:35 145.980
UNISAT 6 31 Jan 08:42:27 08:46:04 23° 67° (ENE) 08:49:48 437.425
SEEDS 31 Jan 08:48:23 08:52:35 69° 101° (E) 08:56:44 437.485
GOMX 1 31 Jan 08:56:04 09:01:32 88° 286° (WNW) 09:06:41 467.674
DOVE 4 31 Jan 08:58:17 09:03:29 72° 101° (ESE) 09:08:23 437.250
UKube-1 31 Jan 09:06:55 09:10:09 21° 93° (E) 09:13:29 .
NANOSAT C BR1 31 Jan 09:09:52 09:13:16 24° 68° (ENE) 09:16:46 145.865
SO-50 31 Jan 09:11:04 09:15:19 41° 117° (ESE) 09:19:46 436.795
BRITE-PL 31 Jan 09:11:46 09:17:13 48° 289° (WNW) 09:22:24 437.365/2234.400
COMPASS 1 31 Jan 09:11:50 09:16:01 77° 284° (WNW) 09:20:10 437.405
HUMSAT D 31 Jan 09:13:45 09:14:55 11° 87° (E) 09:16:20 437.325/437.525
ANTELSAT 31 Jan 09:17:32 09:22:05 51° 73° (ENE) 09:26:40 437.575/2403.000
DELFI C3 31 Jan 09:19:29 09:23:20 41° 98° (E) 09:27:11 145.870
TIGRISAT 31 Jan 09:23:55 09:28:31 58° 74° (ENE) 09:33:09 435.000
PHONESAT 2.4 31 Jan 09:24:14 09:27:48 62° 170° (S) 09:31:24 2401.200-2431.200
QB50P2 31 Jan 09:24:55 09:28:48 35° 71° (ENE) 09:32:46 145.880/145.840
ZACube-1 31 Jan 09:25:38 09:29:30 30° 95° (E) 09:33:18 437.345
CUBEBUG 2 31 Jan 09:27:19 09:31:42 45° 98° (E) 09:35:56 437.445
DX 1 31 Jan 09:29:43 09:33:49 38° 98° (E) 09:37:56 434.975-435.025
CANX-2 31 Jan 09:33:08 09:36:50 29° 290° (WNW) 09:40:27 2200.000
QB50P1 31 Jan 09:33:18 09:37:20 42° 72° (ENE) 09:41:26 145.935-145.965
BUGSAT 1 31 Jan 09:33:58 09:37:37 32° 70° (ENE) 09:41:22 437.445
HO-68 31 Jan 09:36:14 09:43:13 56° 292° (WNW) 09:50:09 435.675
AAUSAT CUBESAT 2 31 Jan 09:36:38 09:40:37 45° 287° (WNW) 09:44:34 437.432
FUNcube-1 31 Jan 09:36:40 09:40:48 38° 97° (E) 09:44:49 145.935
POLYITAN 1 31 Jan 09:49:19 09:53:35 66° 75° (ENE) 09:57:54 437.675
VERMONT LUNAR 31 Jan 09:50:34 09:54:03 74° 181° (S) 09:57:33 437.305
BEESAT 2 31 Jan 09:52:20 09:56:19 41° 51° (NE) 10:00:16 435.950
RS-15 31 Jan 09:52:29 10:00:43 23° 12° (NNE) 10:09:18 29.354- 29.394
CUTE 1.7 + AOD 2 31 Jan 09:57:33 10:00:33 19° 293° (WNW) 10:03:25 437.475
AIST 2 31 Jan 09:59:49 10:03:20 24° 45° (NE) 10:06:52 435.215
UWE-3 31 Jan 10:02:39 10:07:10 87° 282° (WNW) 10:11:30 435.000/436.395/437.385
50 SAT 31 Jan 10:03:19 10:06:53 30° 96° (E) 10:10:26 437.505
BEESAT 3 31 Jan 10:04:06 10:08:15 62° 55° (NE) 10:12:18 437.485
AISAT 31 Jan 10:04:39 10:08:47 35° 97° (E) 10:12:56 437.250
Oscar 11 31 Jan 10:05:44 10:09:53 47° 287° (WNW) 10:14:00 145.826/435.025
AIST 1 31 Jan 10:06:26 10:09:51 25° 90° (E) 10:13:23
CINEMA 3 31 Jan 10:06:44 10:11:17 41° 289° (WNW) 10:15:37 145.822/145.860
POPSAT HIP 1 31 Jan 10:08:08 10:12:26 79° 258° (WSW) 10:16:46 437.405
DUCHIFAT 1 31 Jan 10:09:28 10:13:44 77° 257° (WSW) 10:18:04 145.980
ESTCUBE 1 31 Jan 10:15:03 10:18:22 20° 92° (E) 10:21:48 437.505/2401.250
UNISAT 6 31 Jan 10:18:16 10:22:41 38° 263° (W) 10:27:04 437.425
SEEDS 31 Jan 10:26:32 10:27:55 11° 296° (WNW) 10:29:06 437.485
VELOX 1 31 Jan 10:31:30 10:35:59 67° 102° (ESE) 10:40:27 145.980
CUBEBUG 1 31 Jan 10:33:27 10:37:20 29° 95° (E) 10:41:15 437.445
GOMX 1 31 Jan 10:36:23 10:38:51 13° 300° (WNW) 10:41:02 467.674
DOVE 4 31 Jan 10:37:36 10:40:38 15° 298° (WNW) 10:43:24 437.250
UKube-1 31 Jan 10:42:27 10:46:28 36° 290° (WNW) 10:50:26 .
NANOSAT C BR1 31 Jan 10:45:14 10:49:03 30° 264° (W) 10:52:51 145.865
HUMSAT D 31 Jan 10:47:03 10:51:15 61° 286° (WNW) 10:55:20 437.325/437.525
SO-50 31 Jan 10:52:04 10:56:02 27° 316° (NW) 11:00:04 436.795
DELFI C3 31 Jan 10:55:43 10:58:18 16° 294° (WNW) 11:00:45 145.870
ANTELSAT 31 Jan 10:56:06 10:59:15 17° 270° (W) 11:02:11 437.575/2403.000
QB50P2 31 Jan 11:01:35 11:04:52 21° 267° (W) 11:08:04 145.880/145.840
ZACube-1 31 Jan 11:02:09 11:05:48 25° 292° (WNW) 11:09:17 437.345
PHONESAT 2.4 31 Jan 11:02:41 11:06:17 68° 187° (S) 11:09:54 2401.200-2431.200
TIGRISAT 31 Jan 11:02:56 11:05:43 15° 271° (W) 11:08:16 435.000
CUBEBUG 2 31 Jan 11:04:55 11:08:05 18° 295° (WNW) 11:11:02 437.445
DX 1 31 Jan 11:06:32 11:09:52 21° 294° (WNW) 11:13:06 434.975-435.025
BUGSAT 1 31 Jan 11:10:04 11:13:14 21° 267° (W) 11:16:20 437.445
QB50P1 31 Jan 11:10:36 11:13:29 17° 269° (W) 11:16:14 145.935-145.965
PCSat 31 Jan 11:12:30 11:16:07 18° 41° (NE) 11:19:53 145.827
FUNcube-1 31 Jan 11:13:40 11:16:54 20° 294° (WNW) 11:19:59 145.935
Oscar 19 31 Jan 11:15:38 11:19:05 19° 63° (ENE) 11:22:42 437.125/150
HO-68 31 Jan 11:27:25 11:29:36 11° 311° (NW) 11:31:22 435.675
GONETS M04 31 Jan 11:28:01 11:36:25 51° 75° (ENE) 11:44:51
VERMONT LUNAR 31 Jan 11:28:40 11:32:00 43° 197° (SSW) 11:35:21 437.305
POLYITAN 1 31 Jan 11:28:41 11:30:05 11° 272° (W) 11:31:13 437.675
BEESAT 2 31 Jan 11:31:14 11:34:17 19° 248° (WSW) 11:37:11 435.950
AIST 2 31 Jan 11:38:06 11:42:06 39° 244° (WSW) 11:46:01 435.215
50 SAT 31 Jan 11:38:44 11:41:53 21° 292° (WNW) 11:44:54 437.505
ITAMSAT 1 31 Jan 11:39:17 11:40:30 11° 58° (ENE) 11:42:00 435.822/435.867
AISAT 31 Jan 11:41:39 11:45:16 23° 293° (WNW) 11:48:46 437.250
AIST 1 31 Jan 11:43:51 11:47:29 26° 287° (WNW) 11:51:04
BEESAT 3 31 Jan 11:44:01 11:45:56 13° 250° (WSW) 11:47:38 437.485
SPROUT 31 Jan 11:45:41 11:49:50 43° 98° (E) 11:53:59 437.525
ESTCUBE 1 31 Jan 11:51:12 11:55:26 39° 289° (WNW) 11:59:38 437.505/2401.250
RS-15 31 Jan 12:06:03 12:16:51 48° 43° (NE) 12:28:11 29.354- 29.394
SWISSCUBE 31 Jan 12:08:08 12:09:58 12° 88° (E) 12:12:05 437.505
VELOX 1 31 Jan 12:09:52 12:12:05 13° 297° (WNW) 12:14:06 145.980
CUBEBUG 1 31 Jan 12:09:53 12:13:39 27° 291° (WNW) 12:17:21 437.445
TISAT 1 31 Jan 12:14:48 12:19:09 89° 109° (ESE) 12:23:25 437.305
BEESAT 31 Jan 12:22:36 12:25:30 16° 90° (E) 12:28:36 436.000
ITUPSAT 1 31 Jan 12:27:44 12:30:56 18° 91° (E) 12:34:19 437.325
PHONESAT 2.4 31 Jan 12:41:23 12:44:36 30° 203° (SSW) 12:47:49 2401.200-2431.200
Gurwin Techsat 1B 31 Jan 12:46:01 12:50:35 31° 67° (ENE) 12:55:14 435.225
Oscar 19 31 Jan 12:52:54 12:58:02 59° 259° (W) 13:03:11 437.125/150
PCSat 31 Jan 12:54:51 13:00:19 84° 242° (WSW) 13:05:44 145.827
HORYU 2 31 Jan 12:57:51 12:58:48 11° 61° (ENE) 13:00:00 437.375
VERMONT LUNAR 31 Jan 13:07:52 13:09:37 13° 212° (SSW) 13:11:19 437.305
ITAMSAT 1 31 Jan 13:14:04 13:19:14 80° 76° (ENE) 13:24:29 435.822/435.867
SPROUT 31 Jan 13:22:38 13:25:39 18° 294° (WNW) 13:28:32 437.525
GONETS M04 31 Jan 13:25:22 13:33:01 35° 274° (W) 13:40:30
AO-7 31 Jan 13:25:42 13:32:07 26° 55° (NE) 13:38:45 29.400- 29.500
STARS 31 Jan 13:33:07 13:33:18 10° 87° (E) 13:33:47 437.465
KKS-1 31 Jan 13:42:05 13:45:26 21° 93° (E) 13:48:53 437.445
SWISSCUBE 31 Jan 13:43:39 13:48:27 70° 285° (WNW) 13:53:13 437.505
BEESAT 31 Jan 13:59:05 14:03:46 53° 287° (WNW) 14:08:24 436.000
DANDE 31 Jan 14:02:43 14:08:29 33° 66° (ENE) 14:13:00 436.750
ITUPSAT 1 31 Jan 14:04:32 14:09:10 48° 288° (WNW) 14:13:46 437.325
RS-15 31 Jan 14:18:36 14:29:40 58° 246° (WSW) 14:41:07 29.354- 29.394
CUSAT 1 31 Jan 14:19:05 14:24:59 51° 73° (ENE) 14:29:20 437.405
Gurwin Techsat 1B 31 Jan 14:25:40 14:30:31 34° 264° (W) 14:35:19 435.225
O/OREOS (USA 219) 31 Jan 14:25:52 14:28:29 16° 101° (E) 14:31:18 437.305
HORYU 2 31 Jan 14:30:23 14:34:53 84° 255° (WSW) 14:39:25 437.375
PCSat 31 Jan 14:41:43 14:43:00 11° 257° (WSW) 14:43:54 145.827
ITAMSAT 1 31 Jan 14:57:18 14:59:29 12° 273° (W) 15:01:23 435.822/435.867
M-CUBED/EXP-1 PRIME 31 Jan 14:57:48 15:00:35 24° 102° (ESE) 15:03:30 437.505
STARS 31 Jan 15:05:58 15:10:26 75° 284° (WNW) 15:14:50 437.465
AO-7 31 Jan 15:15:48 15:24:11 78° 254° (WSW) 15:32:37 29.400- 29.500
KKS-1 31 Jan 15:18:05 15:22:15 37° 289° (WNW) 15:26:21 437.445
AUBIESAT-1 31 Jan 15:28:32 15:31:50 56° 106° (ESE) 15:35:16 437.475
MOZHAYETS 4 31 Jan 15:38:55 15:41:35 16° 90° (E) 15:44:26
JAS-2 31 Jan 15:39:29 15:44:54 76° 75° (ENE) 15:50:06 435.910
Cubesat XI-IV 31 Jan 15:39:59 15:41:49 12° 59° (ENE) 15:43:56 437.490
DANDE 31 Jan 15:46:22 15:51:53 32° 274° (W) 15:56:06 436.750
CUTE-I 31 Jan 15:57:35 16:00:52 17° 62° (ENE) 16:04:21 437.470
O/OREOS (USA 219) 31 Jan 16:03:10 16:07:32 49° 297° (WNW) 16:11:57 437.305
CUSAT 1 31 Jan 16:03:30 16:07:09 17° 279° (W) 16:10:04 437.405
M-CUBED/EXP-1 PRIME 31 Jan 16:33:06 16:35:31 18° 296° (WNW) 16:37:54 437.505
RS-15 31 Jan 16:38:28 16:40:07 10° 263° (W) 16:40:24 29.354- 29.394
AO-7 31 Jan 17:13:56 17:18:31 15° 274° (W) 17:22:30 29.400- 29.500
MOZHAYETS 4 31 Jan 17:14:45 17:19:12 51° 287° (WNW) 17:23:37
Cubesat XI-IV 31 Jan 17:15:52 17:21:11 84° 76° (ENE) 17:26:34 437.490
JAS-2 31 Jan 17:28:34 17:30:46 12° 272° (W) 17:32:35 435.910
CUTE-I 31 Jan 17:35:10 17:40:27 67° 258° (WSW) 17:45:48 437.470
CUBESAT XI-V 31 Jan 17:37:50 17:41:24 22° 92° (E) 17:45:05 437.345
SO-50 31 Jan 17:42:01 17:46:42 43° 50° (NE) 17:51:25 436.795
PRISM 31 Jan 18:12:11 18:16:19 66° 102° (ESE) 18:20:28 437.425
HO-68 31 Jan 18:19:04 18:24:19 24° 58° (ENE) 18:29:48 435.675
YUBILEINY 31 Jan 18:26:32 18:34:30 44° 88° (E) 18:42:37 435.215
GOMX 1 31 Jan 18:28:51 18:31:27 14° 61° (ENE) 18:34:21 467.674
DOVE 4 31 Jan 18:30:57 18:31:36 10° 59° (ENE) 18:32:34 437.250
BRITE-PL 31 Jan 18:44:46 18:49:02 27° 66° (ENE) 18:53:40 437.365/2234.400
STRAND 1 31 Jan 18:45:38 18:50:48 70° 102° (ESE) 18:55:56 437.568
CANX-2 31 Jan 18:51:24 18:54:23 19° 67° (ENE) 18:57:29 2200.000
AAUSAT CUBESAT 2 31 Jan 18:55:13 18:56:37 12° 64° (ENE) 18:58:14 437.432
Cubesat XI-IV 31 Jan 18:59:57 19:02:06 12° 274° (W) 19:03:54 437.490
CUTE 1.7 + AOD 2 31 Jan 19:14:19 19:18:03 30° 70° (ENE) 19:21:49 437.475
CUBESAT XI-V 31 Jan 19:14:38 19:19:01 39° 289° (WNW) 19:23:22 437.345
SO-50 31 Jan 19:23:00 19:27:06 26° 247° (WSW) 19:31:05 436.795
Oscar 11 31 Jan 19:26:54 19:29:00 14° 64° (ENE) 19:31:17 145.826/435.025
CINEMA 3 31 Jan 19:32:08 19:35:54 22° 66° (ENE) 19:39:49 145.822/145.860
SEEDS 31 Jan 19:40:48 19:44:54 49° 74° (ENE) 19:49:02 437.485
PRISM 31 Jan 19:49:47 19:51:23 12° 297° (WNW) 19:52:47 437.425
UKube-1 31 Jan 20:02:42 20:05:46 20° 66° (ENE) 20:08:56 .
COMPASS 1 31 Jan 20:03:22 20:07:34 75° 76° (ENE) 20:11:48 437.405
DOVE 4 31 Jan 20:03:25 20:08:29 73° 74° (ENE) 20:13:49 437.250
GOMX 1 31 Jan 20:03:42 20:08:50 84° 256° (WSW) 20:14:19 467.674
HO-68 31 Jan 20:04:19 20:11:28 73° 256° (WSW) 20:18:38 435.675
DELFI C3 31 Jan 20:08:19 20:11:46 28° 70° (ENE) 20:15:18 145.870
ZACube-1 31 Jan 20:21:56 20:25:46 27° 69° (ENE) 20:29:41 437.345
BRITE-PL 31 Jan 20:22:29 20:27:20 41° 264° (W) 20:32:31 437.365/2234.400
YUBILEINY 31 Jan 20:23:18 20:31:26 41° 289° (WNW) 20:39:31 435.215
ISS 31 Jan 20:23:32 20:26:38 41° 139° (SE) 20:29:46 145.825
CUBEBUG 2 31 Jan 20:25:28 20:29:56 42° 72° (ENE) 20:34:28 437.445
DX 1 31 Jan 20:25:45 20:29:41 35° 70° (ENE) 20:33:41 434.975-435.025
CANX-2 31 Jan 20:26:04 20:30:06 39° 262° (W) 20:34:08 2200.000
STRAND 1 31 Jan 20:26:20 20:29:30 16° 298° (WNW) 20:32:27 437.568
AAUSAT CUBESAT 2 31 Jan 20:27:38 20:31:49 66° 259° (W) 20:36:01 437.432
FUNcube-1 31 Jan 20:32:38 20:36:45 34° 71° (ENE) 20:40:56 145.935
CUTE 1.7 + AOD 2 31 Jan 20:50:31 20:54:02 24° 267° (W) 20:57:28 437.475
50 SAT 31 Jan 20:51:28 20:54:33 21° 68° (ENE) 20:57:44 437.505
UWE-3 31 Jan 20:59:31 21:04:13 79° 75° (ENE) 21:08:57 435.000/436.395/437.385
Oscar 11 31 Jan 21:00:28 21:04:45 59° 259° (W) 21:09:04 145.826/435.025
AISAT 31 Jan 21:03:08 21:07:07 33° 69° (ENE) 21:11:10 437.250
CINEMA 3 31 Jan 21:08:03 21:12:49 46° 263° (W) 21:17:40 145.822/145.860
ESTCUBE 1 31 Jan 21:15:32 21:18:45 20° 66° (ENE) 21:22:07 437.505/2401.250
TIGRISAT 31 Jan 21:18:22 21:19:27 11° 87° (E) 21:20:48 435.000
SEEDS 31 Jan 21:18:41 21:21:05 14° 270° (W) 21:23:18 437.485
VELOX 1 31 Jan 21:29:28 21:33:50 62° 74° (ENE) 21:38:16 145.980
CUBEBUG 1 31 Jan 21:30:22 21:33:55 26° 68° (ENE) 21:37:36 437.445
UKube-1 31 Jan 21:37:37 21:41:42 39° 262° (W) 21:45:47 .
POLYITAN 1 31 Jan 21:37:38 21:38:30 11° 87° (E) 21:39:39 437.675
HUMSAT D 31 Jan 21:38:56 21:43:17 85° 257° (WSW) 21:47:40 437.325/437.525
DELFI C3 31 Jan 21:43:43 21:47:02 23° 266° (W) 21:50:17 145.870
DOVE 4 31 Jan 21:44:10 21:46:57 14° 274° (W) 21:49:29 437.250
AIST 1 31 Jan 21:49:49 21:54:12 75° 81° (E) 21:58:34
POPSAT HIP 1 31 Jan 21:54:33 21:57:18 17° 91° (E) 22:00:12 437.405
DUCHIFAT 1 31 Jan 21:55:31 21:58:18 17° 91° (E) 22:01:12 145.980
ZACube-1 31 Jan 21:57:57 22:02:04 31° 265° (W) 22:06:10 437.345
HO-68 31 Jan 21:58:07 22:00:36 11° 276° (W) 22:02:30 435.675
ISS 31 Jan 22:00:15 22:03:12 29° 336° (NNW) 22:06:09 145.825
DX 1 31 Jan 22:02:40 22:06:03 21° 267° (W) 22:09:23 434.975-435.025
CUBEBUG 2 31 Jan 22:03:09 22:06:50 21° 268° (W) 22:10:26 437.445
FUNcube-1 31 Jan 22:09:22 22:13:11 24° 267° (W) 22:16:54 145.935
UNISAT 6 31 Jan 22:10:12 22:14:26 43° 98° (E) 22:18:34 437.425
